User: anonymous   Login
Location: Lone Wolf Observatory
(41.0360°N, 89.2260°W)
Time: 17:14:47
(UTC-05:00)
Language:

Cosmos 1378 Rocket - Orbit

View from above orbital plane
View from above orbital plane
View from above satellite
View from above satellite

Ground track
Ground track

The orbit data is extracted from the following two-line orbital elements,

1 13272U 82059B   15148.96439473  .00000254  00000-0  27236-4 0  9998
2 13272 082.5095 124.0022 0020273 076.0539 284.2929 14.84363640780595
Epoch (UTC): 28 May 2015 23:08:43
Eccentricity: 0.0020273
inclination: 82.5095°
perigee height: 601 km
apogee height: 630 km
right ascension of ascending node: 124.0022°
argument of perigee: 76.0539°
revolutions per day: 14.84363640
mean anomaly at epoch: 284.2929°
orbit number at epoch: 78059

The dashed part of the orbit path shows where the satellite is in the earth's shadow,  

DLR